Time,TemperatureF,DewpointF,PressureIn,WindDirection,WindDirectionDegrees,WindSpeedMPH,WindSpeedGustMPH,Humidity,HourlyPrecipIn,Conditions,Clouds,dailyrainin,SoftwareType,DateUTC
2013-03-13 00:00:00,38.3,27.6,30.17,ENE,78,0.0,0.0,65,0.00,,---,0.00,VWS V13.01,2013-03-13 06:00:00,
2013-03-13 00:06:00,38.2,27.5,30.17,ENE,78,0.0,0.0,65,0.00,,---,0.00,VWS V13.01,2013-03-13 06:06:00,
2013-03-13 00:11:00,37.9,27.6,30.17,ENE,78,0.0,0.0,66,0.00,,---,0.00,VWS V13.01,2013-03-13 06:11:00,
2013-03-13 00:17:00,37.8,27.5,30.16,ENE,78,0.0,0.0,66,0.00,,---,0.00,VWS V13.01,2013-03-13 06:17:00,
2013-03-13 00:22:00,37.8,27.5,30.16,ENE,78,0.0,0.0,66,0.00,,---,0.00,VWS V13.01,2013-03-13 06:22:00,
2013-03-13 00:27:00,37.6,27.6,30.16,ENE,78,0.0,0.0,67,0.00,,---,0.00,VWS V13.01,2013-03-13 06:27:00,
2013-03-13 00:32:00,37.8,27.5,30.17,ENE,78,0.0,0.0,66,0.00,,---,0.00,VWS V13.01,2013-03-13 06:32:00,
2013-03-13 00:38:00,37.8,27.5,30.17,ENE,78,0.0,0.0,66,0.00,,---,0.00,VWS V13.01,2013-03-13 06:38:00,
2013-03-13 00:43:00,37.9,27.6,30.17,ENE,78,0.0,0.0,66,0.00,,---,0.00,VWS V13.01,2013-03-13 06:43:00,
2013-03-13 00:48:00,37.9,27.6,30.17,ENE,78,0.0,2.0,66,0.00,,---,0.00,VWS V13.01,2013-03-13 06:48:00,
2013-03-13 00:53:00,37.9,27.6,30.17,ENE,78,0.0,0.0,66,0.00,,---,0.00,VWS V13.01,2013-03-13 06:53:00,
2013-03-13 00:59:00,37.9,27.6,30.17,ENE,78,0.0,0.0,66,0.00,,---,0.00,VWS V13.01,2013-03-13 06:59:00,
2013-03-13 01:04:00,38.2,27.5,30.17,ENE,78,0.0,0.0,65,0.00,,---,0.00,VWS V13.01,2013-03-13 07:04:00,
2013-03-13 01:09:00,38.6,27.5,30.17,ENE,78,0.0,1.0,64,0.00,,---,0.00,VWS V13.01,2013-03-13 07:09:00,
2013-03-13 01:14:00,38.8,27.7,30.17,ENE,78,0.0,0.0,64,0.00,,---,0.00,VWS V13.01,2013-03-13 07:14:00,
2013-03-13 01:19:00,38.9,27.8,30.12,ENE,78,0.0,0.0,64,0.00,,---,0.00,VWS V13.01,2013-03-13 07:19:00,
2013-03-13 01:24:00,39.1,27.6,30.12,ENE,78,0.0,0.0,63,0.00,,---,0.00,VWS V13.01,2013-03-13 07:24:00,
2013-03-13 01:30:00,39.2,27.3,30.12,ENE,78,0.0,0.0,62,0.00,,---,0.00,VWS V13.01,2013-03-13 07:30:00,
2013-03-13 01:35:00,39.3,27.4,30.12,ENE,78,0.0,0.0,62,0.00,,---,0.00,VWS V13.01,2013-03-13 07:35:00,
2013-03-13 01:40:00,39.3,27.4,30.12,ENE,78,0.0,0.0,62,0.00,,---,0.00,VWS V13.01,2013-03-13 07:40:00,
2013-03-13 01:45:00,39.3,27.8,30.12,ENE,78,0.0,0.0,63,0.00,,---,0.00,VWS V13.01,2013-03-13 07:45:00,
2013-03-13 01:50:00,39.5,28.0,30.12,ENE,78,0.0,0.0,63,0.00,,---,0.00,VWS V13.01,2013-03-13 07:50:00,
2013-03-13 01:56:00,39.5,28.0,30.12,ENE,78,0.0,0.0,63,0.00,,---,0.00,VWS V13.01,2013-03-13 07:56:00,
2013-03-13 02:02:00,39.6,27.7,30.12,ENE,78,0.0,0.0,62,0.00,,---,0.00,VWS V13.01,2013-03-13 08:02:00,
2013-03-13 02:08:00,39.8,27.9,30.12,ENE,78,0.0,0.0,62,0.00,,---,0.00,VWS V13.01,2013-03-13 08:08:00,
2013-03-13 02:13:00,39.8,27.9,30.12,ENE,78,0.0,0.0,62,0.00,,---,0.00,VWS V13.01,2013-03-13 08:13:00,
2013-03-13 02:19:00,39.9,27.6,30.10,ENE,78,0.0,0.0,61,0.00,,---,0.00,VWS V13.01,2013-03-13 08:19:00,
2013-03-13 02:24:00,39.9,28.0,30.10,ENE,78,0.0,0.0,62,0.00,,---,0.00,VWS V13.01,2013-03-13 08:24:00,
2013-03-13 02:29:00,39.9,27.2,30.10,South,171,0.0,2.0,60,0.00,,---,0.00,VWS V13.01,2013-03-13 08:29:00,
2013-03-13 02:35:00,40.1,28.1,30.11,South,171,0.0,0.0,62,0.00,,---,0.00,VWS V13.01,2013-03-13 08:35:00,
2013-03-13 02:40:00,40.3,27.5,30.11,NNE,25,4.0,6.0,60,0.00,,---,0.00,VWS V13.01,2013-03-13 08:40:00,
2013-03-13 02:45:00,40.6,27.4,30.10,NE,38,0.0,4.0,59,0.00,,---,0.00,VWS V13.01,2013-03-13 08:45:00,
2013-03-13 02:50:00,41.1,27.9,30.10,NNE,23,0.0,2.0,59,0.00,,---,0.00,VWS V13.01,2013-03-13 08:50:00,
2013-03-13 02:56:00,41.3,27.6,30.10,NNE,26,0.0,4.0,58,0.00,,---,0.00,VWS V13.01,2013-03-13 08:56:00,
2013-03-13 03:01:00,41.3,27.6,30.09,NNE,26,0.0,0.0,58,0.00,,---,0.00,VWS V13.01,2013-03-13 09:01:00,
2013-03-13 03:06:00,41.2,28.0,30.09,NNE,26,0.0,0.0,59,0.00,,---,0.00,VWS V13.01,2013-03-13 09:06:00,
2013-03-13 03:12:00,41.1,27.9,30.09,NE,41,1.0,2.0,59,0.00,,---,0.00,VWS V13.01,2013-03-13 09:12:00,
2013-03-13 03:17:00,41.1,27.9,30.09,NNW,331,0.0,1.0,59,0.00,,---,0.00,VWS V13.01,2013-03-13 09:17:00,
2013-03-13 03:22:00,41.1,27.5,30.09,East,93,1.0,1.0,58,0.00,,---,0.00,VWS V13.01,2013-03-13 09:22:00,
2013-03-13 03:27:00,41.2,27.6,30.09,NE,44,0.0,1.0,58,0.00,,---,0.00,VWS V13.01,2013-03-13 09:27:00,
2013-03-13 03:32:00,41.5,27.4,30.09,NNW,344,0.0,0.0,57,0.00,,---,0.00,VWS V13.01,2013-03-13 09:32:00,
2013-03-13 03:37:00,41.6,27.1,30.09,ENE,75,0.0,0.0,56,0.00,,---,0.00,VWS V13.01,2013-03-13 09:37:00,
2013-03-13 03:42:00,41.8,27.3,30.09,NNE,24,3.0,3.0,56,0.00,,---,0.00,VWS V13.01,2013-03-13 09:42:00,
2013-03-13 03:47:00,41.9,27.4,30.08,East,79,0.0,4.0,56,0.00,,---,0.00,VWS V13.01,2013-03-13 09:47:00,
2013-03-13 03:52:00,42.1,27.1,30.08,NNE,21,0.0,1.0,55,0.00,,---,0.00,VWS V13.01,2013-03-13 09:52:00,
2013-03-13 03:58:00,41.9,26.9,30.08,NW,315,1.0,5.0,55,0.00,,---,0.00,VWS V13.01,2013-03-13 09:58:00,
2013-03-13 04:03:00,41.8,27.3,30.08,North,360,0.0,0.0,56,0.00,,---,0.00,VWS V13.01,2013-03-13 10:03:00,
2013-03-13 04:08:00,41.5,27.0,30.08,WNW,284,0.0,0.0,56,0.00,,---,0.00,VWS V13.01,2013-03-13 10:08:00,
2013-03-13 04:13:00,41.2,26.7,30.08,WNW,285,0.0,0.0,56,0.00,,---,0.00,VWS V13.01,2013-03-13 10:13:00,
2013-03-13 04:18:00,40.9,26.4,30.09,NW,304,0.0,3.0,56,0.00,,---,0.00,VWS V13.01,2013-03-13 10:18:00,
2013-03-13 04:24:00,40.8,26.8,30.09,NNE,13,0.0,1.0,57,0.00,,---,0.00,VWS V13.01,2013-03-13 10:24:00,
2013-03-13 04:29:00,40.6,27.0,30.09,North,355,0.0,1.0,58,0.00,,---,0.00,VWS V13.01,2013-03-13 10:29:00,
2013-03-13 04:34:00,40.3,26.3,30.09,North,9,0.0,0.0,57,0.00,,---,0.00,VWS V13.01,2013-03-13 10:34:00,
2013-03-13 04:39:00,40.2,26.6,30.09,SE,135,0.0,5.0,58,0.00,,---,0.00,VWS V13.01,2013-03-13 10:39:00,
2013-03-13 04:44:00,40.3,26.3,30.09,WSW,240,0.0,0.0,57,0.00,,---,0.00,VWS V13.01,2013-03-13 10:44:00,
2013-03-13 04:49:00,40.3,26.7,30.09,WSW,240,0.0,0.0,58,0.00,,---,0.00,VWS V13.01,2013-03-13 10:49:00,
2013-03-13 04:55:00,40.2,26.2,30.09,WNW,302,0.0,4.0,57,0.00,,---,0.00,VWS V13.01,2013-03-13 10:55:00,
2013-03-13 05:00:00,40.3,25.9,30.09,NNW,338,0.0,3.0,56,0.00,,---,0.00,VWS V13.01,2013-03-13 11:00:00,
2013-03-13 05:05:00,40.3,26.3,30.09,NNW,338,0.0,0.0,57,0.00,,---,0.00,VWS V13.01,2013-03-13 11:05:00,
2013-03-13 05:10:00,40.2,26.2,30.09,NNW,345,0.0,0.0,57,0.00,,---,0.00,VWS V13.01,2013-03-13 11:10:00,
2013-03-13 05:15:00,39.9,25.9,30.09,NNW,345,0.0,0.0,57,0.00,,---,0.00,VWS V13.01,2013-03-13 11:15:00,
2013-03-13 05:20:00,39.6,25.6,30.09,NNW,345,0.0,0.0,57,0.00,,---,0.00,VWS V13.01,2013-03-13 11:20:00,
2013-03-13 05:26:00,39.5,26.0,30.09,NNW,345,0.0,0.0,58,0.00,,---,0.00,VWS V13.01,2013-03-13 11:26:00,
2013-03-13 05:31:00,39.3,26.2,30.11,NNW,345,0.0,0.0,59,0.00,,---,0.00,VWS V13.01,2013-03-13 11:31:00,
2013-03-13 05:36:00,39.2,26.1,30.11,NNW,345,0.0,0.0,59,0.00,,---,0.00,VWS V13.01,2013-03-13 11:36:00,
2013-03-13 05:41:00,38.9,25.8,30.11,NNW,345,0.0,0.0,59,0.00,,---,0.00,VWS V13.01,2013-03-13 11:41:00,
2013-03-13 05:47:00,38.8,25.7,30.12,NNW,345,0.0,0.0,59,0.00,,---,0.00,VWS V13.01,2013-03-13 11:47:00,
2013-03-13 05:52:00,38.5,25.8,30.12,NNW,345,0.0,0.0,60,0.00,,---,0.00,VWS V13.01,2013-03-13 11:52:00,
2013-03-13 05:57:00,38.3,26.0,30.12,NNW,345,0.0,0.0,61,0.00,,---,0.00,VWS V13.01,2013-03-13 11:57:00,
2013-03-13 06:02:00,38.2,26.0,30.12,NNW,345,0.0,0.0,61,0.00,,---,0.00,VWS V13.01,2013-03-13 12:02:00,
2013-03-13 06:08:00,38.2,26.0,30.12,NNW,345,0.0,0.0,61,0.00,,---,0.00,VWS V13.01,2013-03-13 12:08:00,
2013-03-13 06:13:00,38.0,25.4,30.12,NNW,347,0.0,2.0,60,0.00,,---,0.00,VWS V13.01,2013-03-13 12:13:00,
2013-03-13 06:18:00,38.0,25.4,30.13,North,355,0.0,0.0,60,0.00,,---,0.00,VWS V13.01,2013-03-13 12:18:00,
2013-03-13 06:23:00,37.9,25.7,30.13,North,355,0.0,0.0,61,0.00,,---,0.00,VWS V13.01,2013-03-13 12:23:00,
2013-03-13 06:28:00,37.9,25.7,30.13,North,355,0.0,0.0,61,0.00,,---,0.00,VWS V13.01,2013-03-13 12:28:00,
2013-03-13 06:34:00,37.9,25.7,30.13,North,355,0.0,0.0,61,0.00,,---,0.00,VWS V13.01,2013-03-13 12:34:00,
2013-03-13 06:39:00,38.0,25.8,30.13,North,355,0.0,0.0,61,0.00,,---,0.00,VWS V13.01,2013-03-13 12:39:00,
2013-03-13 06:44:00,38.0,25.8,30.13,North,355,0.0,0.0,61,0.00,,---,0.00,VWS V13.01,2013-03-13 12:44:00,
2013-03-13 06:49:00,38.0,25.4,30.12,North,355,0.0,0.0,60,0.00,,---,0.00,VWS V13.01,2013-03-13 12:49:00,
2013-03-13 06:55:00,38.0,25.4,30.12,North,355,0.0,0.0,60,0.00,,---,0.00,VWS V13.01,2013-03-13 12:55:00,
2013-03-13 07:00:00,38.2,26.0,30.12,North,355,0.0,0.0,61,0.00,,---,0.00,VWS V13.01,2013-03-13 13:00:00,
2013-03-13 07:05:00,38.3,26.0,30.12,North,355,0.0,0.0,61,0.00,,---,0.00,VWS V13.01,2013-03-13 13:05:00,
2013-03-13 07:10:00,38.3,25.6,30.12,North,355,0.0,0.0,60,0.00,,---,0.00,VWS V13.01,2013-03-13 13:10:00,
2013-03-13 07:15:00,38.5,26.2,30.11,North,355,0.0,0.0,61,0.00,,---,0.00,VWS V13.01,2013-03-13 13:15:00,
2013-03-13 07:20:00,38.5,26.2,30.11,North,355,0.0,0.0,61,0.00,,---,0.00,VWS V13.01,2013-03-13 13:20:00,
2013-03-13 07:26:00,38.5,25.4,30.11,North,355,0.0,0.0,59,0.00,,---,0.00,VWS V13.01,2013-03-13 13:26:00,
2013-03-13 07:31:00,38.3,26.0,30.12,North,355,0.0,0.0,61,0.00,,---,0.00,VWS V13.01,2013-03-13 13:31:00,
2013-03-13 07:36:00,38.2,25.5,30.12,North,355,0.0,0.0,60,0.00,,---,0.00,VWS V13.01,2013-03-13 13:36:00,
2013-03-13 07:41:00,38.2,25.5,30.12,North,355,0.0,0.0,60,0.00,,---,0.00,VWS V13.01,2013-03-13 13:41:00,
2013-03-13 07:47:00,38.0,25.8,30.12,North,355,0.0,0.0,61,0.00,,---,0.00,VWS V13.01,2013-03-13 13:47:00,
2013-03-13 07:52:00,37.9,26.1,30.12,North,5,0.0,0.0,62,0.00,,---,0.00,VWS V13.01,2013-03-13 13:52:00,
2013-03-13 07:57:00,37.9,26.1,30.12,North,5,0.0,0.0,62,0.00,,---,0.00,VWS V13.01,2013-03-13 13:57:00,
2013-03-13 08:02:00,37.8,26.4,30.12,North,5,0.0,0.0,63,0.00,,---,0.00,VWS V13.01,2013-03-13 14:02:00,
2013-03-13 08:07:00,37.8,25.6,30.12,North,5,0.0,0.0,61,0.00,,---,0.00,VWS V13.01,2013-03-13 14:07:00,
2013-03-13 08:12:00,37.9,26.1,30.12,North,5,0.0,0.0,62,0.00,,---,0.00,VWS V13.01,2013-03-13 14:12:00,
2013-03-13 08:17:00,37.9,26.5,30.13,North,5,0.0,0.0,63,0.00,,---,0.00,VWS V13.01,2013-03-13 14:17:00,
2013-03-13 08:23:00,37.9,26.5,30.13,North,5,0.0,0.0,63,0.00,,---,0.00,VWS V13.01,2013-03-13 14:23:00,
2013-03-13 08:28:00,37.9,26.1,30.13,North,5,0.0,0.0,62,0.00,,---,0.00,VWS V13.01,2013-03-13 14:28:00,
2013-03-13 08:33:00,38.3,26.0,30.14,North,5,0.0,0.0,61,0.00,,---,0.00,VWS V13.01,2013-03-13 14:33:00,
2013-03-13 08:38:00,38.6,26.3,30.14,NNE,13,0.0,1.0,61,0.00,,---,0.00,VWS V13.01,2013-03-13 14:38:00,
2013-03-13 08:44:00,38.9,26.2,30.14,NNE,13,0.0,0.0,60,0.00,,---,0.00,VWS V13.01,2013-03-13 14:44:00,
2013-03-13 08:49:00,39.1,26.4,30.14,NNE,13,0.0,0.0,60,0.00,,---,0.00,VWS V13.01,2013-03-13 14:49:00,
2013-03-13 08:54:00,39.3,26.2,30.14,NNE,13,0.0,0.0,59,0.00,,---,0.00,VWS V13.01,2013-03-13 14:54:00,
2013-03-13 08:59:00,39.6,26.5,30.14,NNE,13,0.0,0.0,59,0.00,,---,0.00,VWS V13.01,2013-03-13 14:59:00,
2013-03-13 09:05:00,39.8,26.7,30.13,NNE,13,0.0,0.0,59,0.00,,---,0.00,VWS V13.01,2013-03-13 15:05:00,
2013-03-13 09:10:00,39.9,26.8,30.13,NNE,13,0.0,0.0,59,0.00,,---,0.00,VWS V13.01,2013-03-13 15:10:00,
2013-03-13 09:15:00,40.2,27.0,30.13,ENE,76,0.0,1.0,59,0.00,,---,0.00,VWS V13.01,2013-03-13 15:15:00,
2013-03-13 09:20:00,40.3,26.7,30.15,WNW,290,0.0,4.0,58,0.00,,---,0.00,VWS V13.01,2013-03-13 15:20:00,
2013-03-13 09:25:00,40.6,26.6,30.15,NE,34,0.0,1.0,57,0.00,,---,0.00,VWS V13.01,2013-03-13 15:25:00,
2013-03-13 09:30:00,41.1,27.0,30.15,NE,34,0.0,0.0,57,0.00,,---,0.00,VWS V13.01,2013-03-13 15:30:00,
2013-03-13 09:35:00,41.2,26.7,30.15,NE,34,0.0,0.0,56,0.00,,---,0.00,VWS V13.01,2013-03-13 15:35:00,
2013-03-13 09:40:00,41.3,26.8,30.15,NE,34,0.0,0.0,56,0.00,,---,0.00,VWS V13.01,2013-03-13 15:40:00,
2013-03-13 09:46:00,41.5,27.0,30.14,NE,34,0.0,1.0,56,0.00,,---,0.00,VWS V13.01,2013-03-13 15:46:00,
2013-03-13 09:51:00,41.8,26.8,30.14,NE,34,0.0,1.0,55,0.00,,---,0.00,VWS V13.01,2013-03-13 15:51:00,
2013-03-13 09:56:00,42.1,27.1,30.14,NE,34,0.0,0.0,55,0.00,,---,0.00,VWS V13.01,2013-03-13 15:56:00,
2013-03-13 10:01:00,42.3,26.9,30.15,NE,34,0.0,0.0,54,0.00,,---,0.00,VWS V13.01,2013-03-13 16:01:00,
2013-03-13 10:07:00,42.6,27.1,30.15,NE,34,1.0,1.0,54,0.00,,---,0.00,VWS V13.01,2013-03-13 16:07:00,
2013-03-13 10:12:00,42.9,25.6,30.15,NE,52,0.0,0.0,50,0.00,,---,0.00,VWS V13.01,2013-03-13 16:12:00,
2013-03-13 10:17:00,43.5,26.6,30.14,WNW,294,0.0,1.0,51,0.00,,---,0.00,VWS V13.01,2013-03-13 16:17:00,
2013-03-13 10:22:00,44.1,26.7,30.14,NW,309,0.0,0.0,50,0.00,,---,0.00,VWS V13.01,2013-03-13 16:22:00,
2013-03-13 10:27:00,44.5,24.0,30.14,NW,309,0.0,0.0,44,0.00,,---,0.00,VWS V13.01,2013-03-13 16:27:00,
2013-03-13 10:33:00,45.2,26.2,30.13,NNE,28,0.0,1.0,47,0.00,,---,0.00,VWS V13.01,2013-03-13 16:33:00,
2013-03-13 10:38:00,45.7,24.5,30.13,NW,313,0.0,6.0,43,0.00,,---,0.00,VWS V13.01,2013-03-13 16:38:00,
2013-03-13 10:43:00,46.1,26.5,30.13,ENE,67,0.0,3.0,46,0.00,,---,0.00,VWS V13.01,2013-03-13 16:43:00,
2013-03-13 10:48:00,46.4,25.7,30.12,NNE,28,0.0,4.0,44,0.00,,---,0.00,VWS V13.01,2013-03-13 16:48:00,
2013-03-13 10:53:00,46.8,24.4,30.12,NNE,13,0.0,3.0,41,0.00,,---,0.00,VWS V13.01,2013-03-13 16:53:00,
2013-03-13 10:59:00,47.1,25.8,30.12,NNE,24,0.0,3.0,43,0.00,,---,0.00,VWS V13.01,2013-03-13 16:59:00,
2013-03-13 11:04:00,47.4,26.0,30.11,WNW,292,0.0,1.0,43,0.00,,---,0.00,VWS V13.01,2013-03-13 17:04:00,
2013-03-13 11:09:00,47.7,28.0,30.11,WNW,292,1.0,1.0,46,0.00,,---,0.00,VWS V13.01,2013-03-13 17:09:00,
2013-03-13 11:14:00,47.9,26.5,30.11,WNW,293,0.0,0.0,43,0.00,,---,0.00,VWS V13.01,2013-03-13 17:14:00,
2013-03-13 11:19:00,48.0,26.6,30.12,WNW,293,0.0,1.0,43,0.00,,---,0.00,VWS V13.01,2013-03-13 17:19:00,
2013-03-13 11:24:00,48.2,26.2,30.12,NW,304,0.0,1.0,42,0.00,,---,0.00,VWS V13.01,2013-03-13 17:24:00,
2013-03-13 11:30:00,48.5,24.7,30.12,NNE,14,0.0,0.0,39,0.00,,---,0.00,VWS V13.01,2013-03-13 17:30:00,
2013-03-13 11:35:00,48.9,27.4,30.12,NNW,338,0.0,2.0,43,0.00,,---,0.00,VWS V13.01,2013-03-13 17:35:00,
2013-03-13 11:40:00,49.1,26.4,30.12,NNW,338,0.0,0.0,41,0.00,,---,0.00,VWS V13.01,2013-03-13 17:40:00,
2013-03-13 11:45:00,49.2,28.2,30.13,North,350,0.0,0.0,44,0.00,,---,0.00,VWS V13.01,2013-03-13 17:45:00,
2013-03-13 11:50:00,49.4,26.1,30.13,WNW,294,0.0,2.0,40,0.00,,---,0.00,VWS V13.01,2013-03-13 17:50:00,
2013-03-13 11:55:00,49.4,26.7,30.13,WNW,294,0.0,0.0,41,0.00,,---,0.00,VWS V13.01,2013-03-13 17:55:00,
2013-03-13 12:01:00,49.5,28.0,30.12,ESE,114,0.0,2.0,43,0.00,,---,0.00,VWS V13.01,2013-03-13 18:01:00,
2013-03-13 12:06:00,49.5,26.2,30.12,ESE,114,0.0,1.0,40,0.00,,---,0.00,VWS V13.01,2013-03-13 18:06:00,
2013-03-13 12:11:00,49.8,25.9,30.12,South,174,0.0,0.0,39,0.00,,---,0.00,VWS V13.01,2013-03-13 18:11:00,
2013-03-13 12:16:00,49.9,26.0,30.11,North,350,1.0,1.0,39,0.00,,---,0.00,VWS V13.01,2013-03-13 18:16:00,
2013-03-13 12:21:00,49.9,27.7,30.11,North,350,0.0,0.0,42,0.00,,---,0.00,VWS V13.01,2013-03-13 18:21:00,
2013-03-13 12:27:00,49.9,28.9,30.11,NNE,16,0.0,0.0,44,0.00,,---,0.00,VWS V13.01,2013-03-13 18:27:00,
2013-03-13 12:32:00,50.1,26.1,30.10,West,259,0.0,1.0,39,0.00,,---,0.00,VWS V13.01,2013-03-13 18:32:00,
2013-03-13 12:37:00,50.4,27.6,30.10,ENE,71,0.0,2.0,41,0.00,,---,0.00,VWS V13.01,2013-03-13 18:37:00,
2013-03-13 12:42:00,50.8,25.5,30.10,WNW,294,0.0,1.0,37,0.00,,---,0.00,VWS V13.01,2013-03-13 18:42:00,
2013-03-13 12:48:00,51.4,24.7,30.10,SW,227,2.0,3.0,35,0.00,,---,0.00,VWS V13.01,2013-03-13 18:48:00,
2013-03-13 12:53:00,52.2,23.2,30.10,WNW,290,0.0,3.0,32,0.00,,---,0.00,VWS V13.01,2013-03-13 18:53:00,
2013-03-13 12:58:00,52.9,23.9,30.10,South,189,0.0,3.0,32,0.00,,---,0.00,VWS V13.01,2013-03-13 18:58:00,
2013-03-13 13:04:00,53.6,27.3,30.09,North,5,1.0,2.0,36,0.00,,---,0.00,VWS V13.01,2013-03-13 19:04:00,
2013-03-13 13:09:00,53.9,26.9,30.09,North,5,0.0,3.0,35,0.00,,---,0.00,VWS V13.01,2013-03-13 19:09:00,
2013-03-13 13:14:00,54.1,23.4,30.09,SE,136,0.0,3.0,30,0.00,,---,0.00,VWS V13.01,2013-03-13 19:14:00,
2013-03-13 13:19:00,54.1,27.8,30.07,North,11,0.0,3.0,36,0.00,,---,0.00,VWS V13.01,2013-03-13 19:19:00,
2013-03-13 13:25:00,54.1,24.9,30.07,North,5,0.0,1.0,32,0.00,,---,0.00,VWS V13.01,2013-03-13 19:25:00,
2013-03-13 13:30:00,53.8,23.9,30.07,SW,226,0.0,2.0,31,0.00,,---,0.00,VWS V13.01,2013-03-13 19:30:00,
2013-03-13 13:35:00,53.6,24.5,30.07,SW,236,1.0,5.0,32,0.00,,---,0.00,VWS V13.01,2013-03-13 19:35:00,
2013-03-13 13:41:00,53.3,26.4,30.07,East,101,0.0,1.0,35,0.00,,---,0.00,VWS V13.01,2013-03-13 19:41:00,
2013-03-13 13:47:00,53.3,23.5,30.08,SW,230,2.0,2.0,31,0.00,,---,0.00,VWS V13.01,2013-03-13 19:47:00,
2013-03-13 13:52:00,53.5,22.9,30.08,West,259,0.0,2.0,30,0.00,,---,0.00,VWS V13.01,2013-03-13 19:52:00,
2013-03-13 13:57:00,53.5,23.6,30.08,SSW,197,0.0,4.0,31,0.00,,---,0.00,VWS V13.01,2013-03-13 19:57:00,
2013-03-13 14:03:00,53.3,21.9,30.08,West,277,2.0,5.0,29,0.00,,---,0.00,VWS V13.01,2013-03-13 20:03:00,
2013-03-13 14:08:00,53.3,21.9,30.08,WSW,246,0.0,3.0,29,0.00,,---,0.00,VWS V13.01,2013-03-13 20:08:00,
2013-03-13 14:13:00,53.5,22.9,30.08,SSW,196,1.0,2.0,30,0.00,,---,0.00,VWS V13.01,2013-03-13 20:13:00,
2013-03-13 14:18:00,53.5,23.6,30.07,NNE,33,0.0,3.0,31,0.00,,---,0.00,VWS V13.01,2013-03-13 20:18:00,
2013-03-13 14:23:00,53.6,21.3,30.07,WSW,240,0.0,3.0,28,0.00,,---,0.00,VWS V13.01,2013-03-13 20:23:00,
2013-03-13 14:28:00,53.6,24.5,30.07,WSW,240,0.0,1.0,32,0.00,,---,0.00,VWS V13.01,2013-03-13 20:28:00,
2013-03-13 14:33:00,53.8,23.1,30.07,WSW,238,0.0,0.0,30,0.00,,---,0.00,VWS V13.01,2013-03-13 20:33:00,
2013-03-13 14:39:00,54.1,20.9,30.07,WSW,253,0.0,2.0,27,0.00,,---,0.00,VWS V13.01,2013-03-13 20:39:00,
2013-03-13 14:44:00,54.4,22.0,30.07,SSW,203,0.0,1.0,28,0.00,,---,0.00,VWS V13.01,2013-03-13 20:44:00,
2013-03-13 14:49:00,54.5,21.2,30.06,SW,224,0.0,1.0,27,0.00,,---,0.00,VWS V13.01,2013-03-13 20:49:00,
2013-03-13 14:54:00,54.5,21.2,30.06,WSW,249,1.0,1.0,27,0.00,,---,0.00,VWS V13.01,2013-03-13 20:54:00,
2013-03-13 14:59:00,54.5,22.1,30.06,WSW,248,0.0,2.0,28,0.00,,---,0.00,VWS V13.01,2013-03-13 20:59:00,
2013-03-13 15:04:00,54.5,20.3,30.06,WSW,248,0.0,0.0,26,0.00,,---,0.00,VWS V13.01,2013-03-13 21:04:00,
2013-03-13 15:10:00,54.2,21.8,30.06,WSW,248,0.0,0.0,28,0.00,,---,0.00,VWS V13.01,2013-03-13 21:10:00,
2013-03-13 15:15:00,53.9,24.7,30.06,WSW,244,0.0,1.0,32,0.00,,---,0.00,VWS V13.01,2013-03-13 21:15:00,
2013-03-13 15:20:00,53.6,26.6,30.06,ESE,107,0.0,1.0,35,0.00,,---,0.00,VWS V13.01,2013-03-13 21:20:00,
2013-03-13 15:25:00,53.1,26.2,30.06,ESE,107,0.0,1.0,35,0.00,,---,0.00,VWS V13.01,2013-03-13 21:25:00,
2013-03-13 15:31:00,52.6,27.1,30.07,ESE,107,0.0,0.0,37,0.00,,---,0.00,VWS V13.01,2013-03-13 21:31:00,
2013-03-13 15:36:00,52.5,25.7,30.07,North,355,0.0,0.0,35,0.00,,---,0.00,VWS V13.01,2013-03-13 21:36:00,
2013-03-13 15:41:00,52.6,27.7,30.07,North,355,0.0,0.0,38,0.00,,---,0.00,VWS V13.01,2013-03-13 21:41:00,
2013-03-13 15:46:00,52.6,26.4,30.07,North,355,0.0,0.0,36,0.00,,---,0.00,VWS V13.01,2013-03-13 21:46:00,
2013-03-13 15:52:00,52.6,25.8,30.07,North,355,0.0,0.0,35,0.00,,---,0.00,VWS V13.01,2013-03-13 21:52:00,
2013-03-13 15:57:00,52.8,26.6,30.07,North,355,0.0,0.0,36,0.00,,---,0.00,VWS V13.01,2013-03-13 21:57:00,
2013-03-13 16:03:00,52.9,23.9,30.07,North,355,0.0,0.0,32,0.00,,---,0.00,VWS V13.01,2013-03-13 22:03:00,
2013-03-13 16:08:00,53.1,22.5,30.07,WSW,242,2.0,3.0,30,0.00,,---,0.00,VWS V13.01,2013-03-13 22:08:00,
2013-03-13 16:13:00,53.5,25.1,30.07,West,273,0.0,0.0,33,0.00,,---,0.00,VWS V13.01,2013-03-13 22:13:00,
2013-03-13 16:18:00,53.8,23.1,30.07,North,355,1.0,1.0,30,0.00,,---,0.00,VWS V13.01,2013-03-13 22:18:00,
2013-03-13 16:23:00,54.1,24.9,30.07,NNW,327,2.0,5.0,32,0.00,,---,0.00,VWS V13.01,2013-03-13 22:23:00,
2013-03-13 16:28:00,54.4,27.3,30.07,NNE,27,1.0,3.0,35,0.00,,---,0.00,VWS V13.01,2013-03-13 22:28:00,
2013-03-13 16:34:00,54.4,26.6,30.07,NNE,33,0.0,0.0,34,0.00,,---,0.00,VWS V13.01,2013-03-13 22:34:00,
2013-03-13 16:39:00,54.4,24.4,30.07,NNW,331,0.0,1.0,31,0.00,,---,0.00,VWS V13.01,2013-03-13 22:39:00,
2013-03-13 16:44:00,54.4,26.6,30.07,NNW,340,4.0,7.0,34,0.00,,---,0.00,VWS V13.01,2013-03-13 22:44:00,
2013-03-13 16:49:00,54.2,27.2,30.07,NNW,342,0.0,1.0,35,0.00,,---,0.00,VWS V13.01,2013-03-13 22:49:00,
2013-03-13 16:54:00,54.2,27.2,30.07,North,9,0.0,5.0,35,0.00,,---,0.00,VWS V13.01,2013-03-13 22:54:00,
2013-03-13 16:59:00,54.4,26.6,30.07,NW,325,0.0,1.0,34,0.00,,---,0.00,VWS V13.01,2013-03-13 22:59:00,
2013-03-13 17:05:00,54.5,24.5,30.07,SSW,194,0.0,3.0,31,0.00,,---,0.00,VWS V13.01,2013-03-13 23:05:00,
2013-03-13 17:10:00,54.7,24.7,30.07,NNW,329,0.0,3.0,31,0.00,,---,0.00,VWS V13.01,2013-03-13 23:10:00,
2013-03-13 17:15:00,54.7,24.7,30.07,ESE,119,0.0,1.0,31,0.00,,---,0.00,VWS V13.01,2013-03-13 23:15:00,
2013-03-13 17:20:00,54.7,24.7,30.08,ESE,110,0.0,1.0,31,0.00,,---,0.00,VWS V13.01,2013-03-13 23:20:00,
2013-03-13 17:25:00,54.5,27.4,30.08,ESE,110,0.0,1.0,35,0.00,,---,0.00,VWS V13.01,2013-03-13 23:25:00,
2013-03-13 17:31:00,54.2,27.2,30.08,ESE,110,0.0,1.0,35,0.00,,---,0.00,VWS V13.01,2013-03-13 23:31:00,
2013-03-13 17:36:00,53.9,26.9,30.08,ESE,110,0.0,0.0,35,0.00,,---,0.00,VWS V13.01,2013-03-13 23:36:00,
2013-03-13 17:41:00,53.8,26.1,30.08,WNW,285,0.0,0.0,34,0.00,,---,0.00,VWS V13.01,2013-03-13 23:41:00,
2013-03-13 17:47:00,53.5,27.2,30.08,North,5,0.0,2.0,36,0.00,,---,0.00,VWS V13.01,2013-03-13 23:47:00,
2013-03-13 17:52:00,53.2,27.0,30.08,East,98,0.0,0.0,36,0.00,,---,0.00,VWS V13.01,2013-03-13 23:52:00,
2013-03-13 17:57:00,52.8,28.5,30.08,East,98,0.0,0.0,39,0.00,,---,0.00,VWS V13.01,2013-03-13 23:57:00,
2013-03-13 18:02:00,52.0,27.2,30.09,East,98,0.0,0.0,38,0.00,,---,0.00,VWS V13.01,2013-03-14 00:02:00,
2013-03-13 18:08:00,51.6,27.5,30.09,East,98,0.0,0.0,39,0.00,,---,0.00,VWS V13.01,2013-03-14 00:08:00,
2013-03-13 18:13:00,51.3,29.0,30.09,East,98,0.0,0.0,42,0.00,,---,0.00,VWS V13.01,2013-03-14 00:13:00,
2013-03-13 18:18:00,50.8,28.5,30.11,East,98,0.0,0.0,42,0.00,,---,0.00,VWS V13.01,2013-03-14 00:18:00,
2013-03-13 18:23:00,50.5,28.3,30.11,East,98,0.0,0.0,42,0.00,,---,0.00,VWS V13.01,2013-03-14 00:23:00,
2013-03-13 18:28:00,50.4,28.8,30.11,East,98,0.0,0.0,43,0.00,,---,0.00,VWS V13.01,2013-03-14 00:28:00,
2013-03-13 18:33:00,49.9,28.3,30.11,East,98,0.0,0.0,43,0.00,,---,0.00,VWS V13.01,2013-03-14 00:33:00,
2013-03-13 18:38:00,49.6,28.6,30.11,East,98,0.0,0.0,44,0.00,,---,0.00,VWS V13.01,2013-03-14 00:38:00,
2013-03-13 18:44:00,49.2,27.7,30.11,East,98,0.0,0.0,43,0.00,,---,0.00,VWS V13.01,2013-03-14 00:44:00,
2013-03-13 18:49:00,48.9,28.0,30.12,East,98,0.0,0.0,44,0.00,,---,0.00,VWS V13.01,2013-03-14 00:49:00,
2013-03-13 18:54:00,48.8,28.4,30.12,East,98,0.0,0.0,45,0.00,,---,0.00,VWS V13.01,2013-03-14 00:54:00,
2013-03-13 18:59:00,48.5,28.1,30.12,East,98,0.0,0.0,45,0.00,,---,0.00,VWS V13.01,2013-03-14 00:59:00,
2013-03-13 19:04:00,48.2,28.4,30.13,East,98,0.0,0.0,46,0.00,,---,0.00,VWS V13.01,2013-03-14 01:04:00,
2013-03-13 19:09:00,47.9,28.7,30.13,East,98,0.0,0.0,47,0.00,,---,0.00,VWS V13.01,2013-03-14 01:09:00,
2013-03-13 19:15:00,47.4,28.2,30.13,East,98,0.0,0.0,47,0.00,,---,0.00,VWS V13.01,2013-03-14 01:15:00,
2013-03-13 19:20:00,46.8,28.7,30.14,East,98,0.0,0.0,49,0.00,,---,0.00,VWS V13.01,2013-03-14 01:20:00,
2013-03-13 19:25:00,46.2,29.1,30.14,East,98,0.0,0.0,51,0.00,,---,0.00,VWS V13.01,2013-03-14 01:25:00,
2013-03-13 19:30:00,45.5,28.4,30.14,East,98,0.0,0.0,51,0.00,,---,0.00,VWS V13.01,2013-03-14 01:30:00,
2013-03-13 19:36:00,44.9,28.8,30.14,East,98,0.0,0.0,53,0.00,,---,0.00,VWS V13.01,2013-03-14 01:36:00,
2013-03-13 19:41:00,44.2,28.6,30.14,East,98,0.0,0.0,54,0.00,,---,0.00,VWS V13.01,2013-03-14 01:41:00,
2013-03-13 19:46:00,43.9,28.4,30.16,East,98,0.0,0.0,54,0.00,,---,0.00,VWS V13.01,2013-03-14 01:46:00,
2013-03-13 19:51:00,43.6,28.5,30.16,East,98,0.0,0.0,55,0.00,,---,0.00,VWS V13.01,2013-03-14 01:51:00,
2013-03-13 19:56:00,43.3,28.2,30.16,East,98,0.0,0.0,55,0.00,,---,0.00,VWS V13.01,2013-03-14 01:56:00,
2013-03-13 20:01:00,43.2,28.1,30.17,East,98,0.0,0.0,55,0.00,,---,0.00,VWS V13.01,2013-03-14 02:01:00,
2013-03-13 20:06:00,43.1,28.5,30.17,East,98,0.0,0.0,56,0.00,,---,0.00,VWS V13.01,2013-03-14 02:06:00,
2013-03-13 20:12:00,42.8,28.2,30.17,East,98,0.0,0.0,56,0.00,,---,0.00,VWS V13.01,2013-03-14 02:12:00,
2013-03-13 20:17:00,42.5,28.4,30.16,East,98,0.0,0.0,57,0.00,,---,0.00,VWS V13.01,2013-03-14 02:17:00,
2013-03-13 20:22:00,42.2,28.1,30.16,East,98,0.0,0.0,57,0.00,,---,0.00,VWS V13.01,2013-03-14 02:22:00,
2013-03-13 20:28:00,41.9,28.2,30.16,East,98,0.0,0.0,58,0.00,,---,0.00,VWS V13.01,2013-03-14 02:28:00,
2013-03-13 20:33:00,41.9,28.2,30.17,East,98,0.0,1.0,58,0.00,,---,0.00,VWS V13.01,2013-03-14 02:33:00,
2013-03-13 20:38:00,41.8,28.1,30.17,East,98,0.0,0.0,58,0.00,,---,0.00,VWS V13.01,2013-03-14 02:38:00,
2013-03-13 20:43:00,41.8,28.5,30.17,East,98,0.0,0.0,59,0.00,,---,0.00,VWS V13.01,2013-03-14 02:43:00,
2013-03-13 20:48:00,41.6,28.4,30.16,East,98,0.0,1.0,59,0.00,,---,0.00,VWS V13.01,2013-03-14 02:48:00,
2013-03-13 20:54:00,41.6,28.4,30.16,East,98,0.0,0.0,59,0.00,,---,0.00,VWS V13.01,2013-03-14 02:54:00,
2013-03-13 20:59:00,41.5,28.3,30.16,East,98,0.0,0.0,59,0.00,,---,0.00,VWS V13.01,2013-03-14 02:59:00,
2013-03-13 21:04:00,41.5,28.3,30.16,East,98,0.0,1.0,59,0.00,,---,0.00,VWS V13.01,2013-03-14 03:04:00,
2013-03-13 21:09:00,41.6,28.4,30.16,East,98,0.0,0.0,59,0.00,,---,0.00,VWS V13.01,2013-03-14 03:09:00,
2013-03-13 21:14:00,41.6,28.4,30.16,East,98,0.0,1.0,59,0.00,,---,0.00,VWS V13.01,2013-03-14 03:14:00,
2013-03-13 21:20:00,41.3,28.1,30.16,East,98,0.0,0.0,59,0.00,,---,0.00,VWS V13.01,2013-03-14 03:20:00,
2013-03-13 21:25:00,41.3,28.1,30.16,East,98,0.0,0.0,59,0.00,,---,0.00,VWS V13.01,2013-03-14 03:25:00,
2013-03-13 21:30:00,41.6,28.4,30.16,East,98,0.0,0.0,59,0.00,,---,0.00,VWS V13.01,2013-03-14 03:30:00,
2013-03-13 21:35:00,41.6,28.4,30.16,East,98,0.0,0.0,59,0.00,,---,0.00,VWS V13.01,2013-03-14 03:35:00,
2013-03-13 21:40:00,41.5,28.3,30.16,East,98,0.0,0.0,59,0.00,,---,0.00,VWS V13.01,2013-03-14 03:40:00,
2013-03-13 21:45:00,41.5,28.7,30.16,East,98,0.0,0.0,60,0.00,,---,0.00,VWS V13.01,2013-03-14 03:45:00,
2013-03-13 21:51:00,41.3,28.5,30.16,East,98,0.0,0.0,60,0.00,,---,0.00,VWS V13.01,2013-03-14 03:51:00,
2013-03-13 21:56:00,41.2,28.0,30.16,East,98,0.0,0.0,59,0.00,,---,0.00,VWS V13.01,2013-03-14 03:56:00,
2013-03-13 22:00:00,41.2,28.4,30.16,East,98,0.0,0.0,60,0.00,,---,0.00,VWS V13.01,2013-03-14 04:00:00,
2013-03-13 22:01:00,41.2,28.8,30.16,East,98,0.0,0.0,61,0.00,,---,0.00,VWS V13.01,2013-03-14 04:01:00,
2013-03-13 22:02:00,41.2,28.8,30.16,East,98,0.0,0.0,61,0.00,,---,0.00,VWS V13.01,2013-03-14 04:02:00,
2013-03-13 22:05:00,41.2,28.4,30.16,East,98,0.0,0.0,60,0.00,,---,0.00,VWS V13.01,2013-03-14 04:05:00,
2013-03-13 22:10:00,41.2,28.4,30.16,East,98,0.0,0.0,60,0.00,,---,0.00,VWS V13.01,2013-03-14 04:10:00,
2013-03-13 22:15:00,41.2,28.8,30.14,East,98,0.0,0.0,61,0.00,,---,0.00,VWS V13.01,2013-03-14 04:15:00,
2013-03-13 22:20:00,41.1,28.3,30.14,East,98,0.0,0.0,60,0.00,,---,0.00,VWS V13.01,2013-03-14 04:20:00,
2013-03-13 22:26:00,41.1,28.7,30.14,East,98,0.0,0.0,61,0.00,,---,0.00,VWS V13.01,2013-03-14 04:26:00,
2013-03-13 22:31:00,40.9,28.5,30.14,East,98,0.0,0.0,61,0.00,,---,0.00,VWS V13.01,2013-03-14 04:31:00,
2013-03-13 22:36:00,40.9,28.1,30.14,East,98,0.0,0.0,60,0.00,,---,0.00,VWS V13.01,2013-03-14 04:36:00,
2013-03-13 22:42:00,41.1,28.3,30.14,East,98,0.0,0.0,60,0.00,,---,0.00,VWS V13.01,2013-03-14 04:42:00,
2013-03-13 22:47:00,41.1,28.3,30.14,East,98,0.0,0.0,60,0.00,,---,0.00,VWS V13.01,2013-03-14 04:47:00,
2013-03-13 22:52:00,41.1,28.7,30.14,East,98,0.0,0.0,61,0.00,,---,0.00,VWS V13.01,2013-03-14 04:52:00,
2013-03-13 22:57:00,40.9,28.1,30.14,East,98,0.0,0.0,60,0.00,,---,0.00,VWS V13.01,2013-03-14 04:57:00,
2013-03-13 23:03:00,41.1,28.3,30.14,East,98,0.0,0.0,60,0.00,,---,0.00,VWS V13.01,2013-03-14 05:03:00,
2013-03-13 23:08:00,41.2,28.4,30.14,East,98,0.0,0.0,60,0.00,,---,0.00,VWS V13.01,2013-03-14 05:08:00,
2013-03-13 23:13:00,41.3,28.5,30.14,East,98,0.0,0.0,60,0.00,,---,0.00,VWS V13.01,2013-03-14 05:13:00,
2013-03-13 23:19:00,41.3,28.5,30.14,East,98,0.0,0.0,60,0.00,,---,0.00,VWS V13.01,2013-03-14 05:19:00,
2013-03-13 23:24:00,41.3,28.5,30.14,East,98,0.0,0.0,60,0.00,,---,0.00,VWS V13.01,2013-03-14 05:24:00,
2013-03-13 23:29:00,41.3,28.1,30.14,East,98,0.0,0.0,59,0.00,,---,0.00,VWS V13.01,2013-03-14 05:29:00,
2013-03-13 23:34:00,41.5,28.3,30.13,East,98,0.0,0.0,59,0.00,,---,0.00,VWS V13.01,2013-03-14 05:34:00,
2013-03-13 23:39:00,41.5,28.3,30.13,East,98,0.0,0.0,59,0.00,,---,0.00,VWS V13.01,2013-03-14 05:39:00,
2013-03-13 23:45:00,41.5,28.3,30.13,East,98,0.0,0.0,59,0.00,,---,0.00,VWS V13.01,2013-03-14 05:45:00,
2013-03-13 23:50:00,41.5,28.3,30.13,East,98,0.0,0.0,59,0.00,,---,0.00,VWS V13.01,2013-03-14 05:50:00,
2013-03-13 23:55:00,41.3,28.1,30.13,East,98,0.0,0.0,59,0.00,,---,0.00,VWS V13.01,2013-03-14 05:55:00,